TAP39TL LPPT-LFPG

Flight info

Callsign TAP39TL
Flight time 1h 58m
Altitude 38000
Route IXIDA DCT RIVRO DCT TOSDI DCT ZMR DCT NUBLO DCT RONSI DCT DELOG DCT YURZI DCT NTS UN741 ANG/N0414F300 UN741 KEPER
Aircraft A339/H-SADE1E2E3GHIJ3J5M1P2RWXY/LB2D1

Departure

Time 2026-05-04 18:18
Airport Lisbon Humberto Delgado Airport (LPPT)

Arrival

Time 2026-05-04 20:16
Airport Charles de Gaulle International Airport (LFPG)
Time Latitude Longitude Altitude Speed Heading
2026-05-04 17:48 38.77547 -9.13185 333 ft 0 kts 78°
2026-05-04 18:06 38.77545 -9.13199 333 ft 2 kts 78°
2026-05-04 18:06 38.77542 -9.13218 334 ft 2 kts 79°
2026-05-04 18:06 38.77539 -9.13237 335 ft 2 kts 79°
2026-05-04 18:07 38.77536 -9.13256 335 ft 2 kts 92°
2026-05-04 18:07 38.77539 -9.13275 336 ft 2 kts 110°
2026-05-04 18:07 38.77546 -9.13292 337 ft 2 kts 126°
2026-05-04 18:07 38.77555 -9.13306 338 ft 2 kts 141°
2026-05-04 18:08 38.77568 -9.13316 338 ft 2 kts 158°
2026-05-04 18:08 38.77577 -9.13320 339 ft 0 kts 168°
2026-05-04 18:08 38.77581 -9.13321 339 ft 0 kts 169°
2026-05-04 18:11 38.77567 -9.13318 338 ft 3 kts 169°
2026-05-04 18:11 38.77524 -9.13307 337 ft 8 kts 169°
2026-05-04 18:11 38.77457 -9.13287 337 ft 10 kts 166°
2026-05-04 18:11 38.77381 -9.13265 336 ft 12 kts 171°
2026-05-04 18:12 38.77292 -9.13248 336 ft 13 kts 169°
2026-05-04 18:12 38.77198 -9.13223 335 ft 14 kts 168°
2026-05-04 18:12 38.77099 -9.13195 337 ft 13 kts 168°
2026-05-04 18:12 38.77015 -9.13172 340 ft 11 kts 168°
2026-05-04 18:13 38.76936 -9.13151 341 ft 12 kts 168°
2026-05-04 18:13 38.76850 -9.13129 341 ft 12 kts 169°
2026-05-04 18:13 38.76769 -9.13243 342 ft 8 kts 256°
2026-05-04 18:14 38.76756 -9.13316 344 ft 8 kts 257°
2026-05-04 18:14 38.76732 -9.13385 344 ft 9 kts 231°
2026-05-04 18:14 38.76681 -9.13439 346 ft 8 kts 221°
2026-05-04 18:15 38.76637 -9.13602 347 ft 11 kts 258°
2026-05-04 18:15 38.76602 -9.13812 348 ft 12 kts 258°
2026-05-04 18:15 38.76583 -9.13929 349 ft 13 kts 259°
2026-05-04 18:16 38.76561 -9.14050 347 ft 14 kts 257°
2026-05-04 18:16 38.76574 -9.14173 346 ft 14 kts 290°
2026-05-04 18:16 38.76608 -9.14282 346 ft 12 kts 292°
2026-05-04 18:17 38.76671 -9.14370 348 ft 4 kts 17°
2026-05-04 18:17 38.76677 -9.14367 348 ft 0 kts 19°
2026-05-04 18:17 38.77061 -9.14169 355 ft 88 kts 22°
2026-05-04 18:18 38.77804 -9.13771 369 ft 142 kts 23°
2026-05-04 18:18 38.78821 -9.13203 676 ft 162 kts 21°
2026-05-04 18:18 38.79797 -9.12552 1342 ft 158 kts 26°
2026-05-04 18:18 38.80702 -9.11843 2035 ft 152 kts 26°
2026-05-04 18:19 38.82645 -9.10408 2712 ft 176 kts 25°
2026-05-04 18:19 38.83782 -9.09620 3020 ft 192 kts 25°
2026-05-04 18:19 38.85017 -9.08774 3325 ft 210 kts 25°
2026-05-04 18:20 38.86346 -9.07870 3656 ft 228 kts 25°
2026-05-04 18:20 38.87819 -9.06873 4020 ft 246 kts 25°
2026-05-04 18:20 38.89318 -9.05713 4502 ft 261 kts 33°
2026-05-04 18:20 38.90743 -9.04251 5223 ft 266 kts 39°
2026-05-04 18:21 38.92121 -9.02646 5958 ft 269 kts 40°
2026-05-04 18:21 38.93488 -9.01029 6673 ft 272 kts 40°
2026-05-04 18:21 38.94896 -8.99368 7392 ft 276 kts 40°
2026-05-04 18:21 38.96303 -8.97715 8092 ft 280 kts 39°
2026-05-04 18:22 38.97745 -8.96024 8795 ft 284 kts 39°
2026-05-04 18:22 38.99222 -8.94295 9494 ft 288 kts 39°
2026-05-04 18:22 39.00703 -8.92561 10179 ft 292 kts 39°
2026-05-04 18:22 39.02208 -8.90802 10822 ft 299 kts 39°
2026-05-04 18:23 39.03773 -8.88972 11441 ft 306 kts 39°
2026-05-04 18:23 39.05352 -8.87124 12110 ft 310 kts 38°
2026-05-04 18:23 39.06943 -8.85258 12778 ft 315 kts 38°
2026-05-04 18:23 39.08568 -8.83354 13418 ft 319 kts 38°
2026-05-04 18:24 39.10212 -8.81429 14056 ft 324 kts 38°
2026-05-04 18:24 39.11890 -8.79462 14718 ft 328 kts 37°
2026-05-04 18:24 39.13576 -8.77482 15343 ft 333 kts 37°
2026-05-04 18:24 39.15293 -8.75467 15990 ft 337 kts 37°
2026-05-04 18:25 39.16992 -8.73365 16641 ft 343 kts 41°
2026-05-04 18:25 39.18624 -8.71068 17278 ft 349 kts 43°
2026-05-04 18:25 39.20224 -8.68730 17899 ft 353 kts 44°
2026-05-04 18:25 39.21859 -8.66324 18516 ft 358 kts 44°
2026-05-04 18:26 39.23496 -8.63911 19107 ft 362 kts 43°
2026-05-04 18:26 39.25172 -8.61444 19724 ft 366 kts 44°
2026-05-04 18:26 39.26847 -8.58982 20311 ft 370 kts 43°
2026-05-04 18:26 39.28545 -8.56486 20888 ft 374 kts 43°
2026-05-04 18:27 39.30262 -8.53960 21445 ft 377 kts 43°
2026-05-04 18:27 39.32009 -8.51391 21991 ft 381 kts 43°
2026-05-04 18:27 39.33755 -8.48820 22532 ft 385 kts 43°
2026-05-04 18:27 39.35513 -8.46227 23043 ft 388 kts 43°
2026-05-04 18:28 39.37313 -8.43575 23571 ft 392 kts 42°
2026-05-04 18:28 39.39111 -8.40923 23984 ft 397 kts 42°
2026-05-04 18:28 39.40943 -8.38219 24063 ft 398 kts 42°
2026-05-04 18:28 39.42744 -8.35555 24067 ft 398 kts 42°
2026-05-04 18:29 39.44588 -8.32827 24063 ft 398 kts 43°
2026-05-04 18:29 39.46399 -8.30142 24068 ft 398 kts 43°
2026-05-04 18:29 39.48221 -8.27440 24055 ft 398 kts 43°
2026-05-04 18:29 39.50017 -8.24775 24067 ft 398 kts 43°
2026-05-04 18:30 39.53673 -8.19344 24059 ft 399 kts 43°
2026-05-04 18:30 39.55500 -8.16628 24067 ft 399 kts 43°
2026-05-04 18:30 39.57324 -8.13907 24059 ft 400 kts 43°
2026-05-04 18:31 39.59194 -8.11221 24273 ft 404 kts 39°
2026-05-04 18:31 39.61174 -8.08692 24847 ft 402 kts 37°
2026-05-04 18:31 39.63200 -8.06182 25381 ft 404 kts 37°
2026-05-04 18:31 39.65255 -8.03637 25790 ft 408 kts 37°
2026-05-04 18:32 39.67302 -8.01080 26205 ft 412 kts 37°
2026-05-04 18:32 39.69357 -7.98496 26626 ft 416 kts 37°
2026-05-04 18:32 39.71432 -7.95872 26998 ft 420 kts 37°
2026-05-04 18:32 39.73535 -7.93204 27397 ft 424 kts 37°
2026-05-04 18:33 39.75627 -7.90541 27809 ft 426 kts 37°
2026-05-04 18:33 39.77771 -7.87812 28176 ft 430 kts 37°
2026-05-04 18:33 39.79912 -7.85081 28535 ft 433 kts 37°
2026-05-04 18:33 39.82060 -7.82337 28906 ft 436 kts 37°
2026-05-04 18:34 39.84220 -7.79578 29240 ft 440 kts 37°
2026-05-04 18:34 39.86434 -7.76747 29606 ft 443 kts 37°
2026-05-04 18:34 39.88630 -7.73932 29941 ft 446 kts 37°
2026-05-04 18:34 39.90840 -7.71097 30285 ft 449 kts 37°
2026-05-04 18:35 39.93073 -7.68234 30620 ft 452 kts 37°
2026-05-04 18:35 39.95297 -7.65378 30936 ft 454 kts 37°
2026-05-04 18:35 39.97572 -7.62458 31265 ft 457 kts 37°
2026-05-04 18:35 39.99826 -7.59559 31570 ft 459 kts 37°
2026-05-04 18:36 40.02092 -7.56638 31866 ft 462 kts 38°
2026-05-04 18:36 40.04370 -7.53701 32146 ft 465 kts 38°
2026-05-04 18:36 40.06694 -7.50701 32442 ft 467 kts 38°
2026-05-04 18:36 40.08988 -7.47736 32753 ft 468 kts 38°
2026-05-04 18:37 40.11299 -7.44745 33056 ft 470 kts 38°
2026-05-04 18:37 40.13635 -7.41718 33361 ft 472 kts 38°
2026-05-04 18:37 40.15954 -7.38709 33629 ft 473 kts 38°
2026-05-04 18:37 40.18293 -7.35676 33896 ft 475 kts 38°
2026-05-04 18:38 40.20623 -7.32653 34141 ft 477 kts 38°
2026-05-04 18:38 40.22996 -7.29570 34355 ft 479 kts 39°
2026-05-04 18:38 40.25360 -7.26500 34552 ft 481 kts 39°
2026-05-04 18:38 40.27736 -7.23407 34766 ft 482 kts 39°
2026-05-04 18:39 40.30096 -7.20327 34963 ft 484 kts 39°
2026-05-04 18:39 40.32475 -7.17218 35155 ft 485 kts 39°
2026-05-04 18:39 40.34866 -7.14093 35333 ft 486 kts 39°
2026-05-04 18:39 40.37274 -7.10940 35546 ft 486 kts 40°
2026-05-04 18:40 40.39663 -7.07810 35796 ft 487 kts 40°
2026-05-04 18:40 40.42067 -7.04659 36010 ft 489 kts 40°
2026-05-04 18:40 40.44439 -7.01546 36209 ft 490 kts 40°
2026-05-04 18:40 40.46867 -6.98359 36443 ft 491 kts 40°
2026-05-04 18:41 40.49271 -6.95194 36669 ft 492 kts 40°
2026-05-04 18:41 40.51692 -6.92006 36841 ft 494 kts 40°
2026-05-04 18:41 40.54107 -6.88824 37059 ft 495 kts 40°
2026-05-04 18:41 40.56529 -6.85627 37225 ft 497 kts 40°
2026-05-04 18:42 40.58975 -6.82395 37442 ft 498 kts 41°
2026-05-04 18:42 40.61424 -6.79157 37611 ft 499 kts 41°
2026-05-04 18:42 40.63846 -6.75948 37823 ft 500 kts 41°
2026-05-04 18:42 40.66298 -6.72695 37982 ft 501 kts 41°
2026-05-04 18:43 40.68747 -6.69445 37977 ft 501 kts 41°
2026-05-04 18:43 40.73660 -6.62914 37989 ft 502 kts 41°
2026-05-04 18:44 40.78587 -6.56349 37978 ft 502 kts 41°
2026-05-04 18:44 40.83472 -6.49826 37980 ft 501 kts 41°
2026-05-04 18:45 40.88363 -6.43281 37988 ft 501 kts 41°
2026-05-04 18:45 40.93230 -6.36747 37985 ft 501 kts 41°
2026-05-04 18:46 40.98136 -6.30158 37986 ft 502 kts 41°
2026-05-04 18:46 41.03221 -6.23905 37989 ft 500 kts 38°
2026-05-04 18:47 41.08399 -6.17764 37999 ft 500 kts 38°
2026-05-04 18:47 41.13562 -6.11610 37989 ft 499 kts 39°
2026-05-04 18:48 41.18671 -6.05493 37982 ft 499 kts 39°
2026-05-04 18:48 41.23808 -5.99326 37989 ft 499 kts 39°
2026-05-04 18:49 41.28960 -5.93128 37978 ft 498 kts 39°
2026-05-04 18:49 41.34093 -5.86937 37981 ft 499 kts 39°
2026-05-04 18:50 41.39223 -5.80734 37967 ft 499 kts 39°
2026-05-04 18:50 41.44324 -5.74551 37966 ft 498 kts 39°
2026-05-04 18:51 41.49580 -5.68592 37968 ft 496 kts 33°
2026-05-04 18:51 41.55249 -5.63476 37972 ft 492 kts 26°
2026-05-04 18:52 41.61294 -5.59270 37950 ft 489 kts 20°
2026-05-04 18:52 41.67538 -5.55716 37953 ft 487 kts 18°
2026-05-04 18:53 41.73761 -5.52240 37954 ft 487 kts 19°
2026-05-04 18:53 41.79997 -5.48727 37946 ft 487 kts 19°
2026-05-04 18:54 41.86221 -5.45201 37946 ft 487 kts 19°
2026-05-04 18:54 41.92490 -5.41636 37939 ft 487 kts 19°
2026-05-04 18:55 41.98722 -5.38086 37950 ft 487 kts 19°
2026-05-04 18:55 42.08026 -5.32770 37943 ft 486 kts 20°
2026-05-04 18:56 42.14272 -5.29195 37946 ft 487 kts 20°
2026-05-04 18:56 42.20573 -5.25575 37953 ft 487 kts 20°
2026-05-04 18:57 42.26838 -5.21970 37958 ft 488 kts 20°
2026-05-04 18:57 42.33075 -5.18373 37960 ft 487 kts 20°
2026-05-04 18:58 42.39282 -5.14787 37964 ft 487 kts 20°
2026-05-04 18:58 42.45511 -5.11179 37970 ft 487 kts 20°
2026-05-04 18:59 42.51730 -5.07570 37973 ft 488 kts 20°
2026-05-04 18:59 42.57964 -5.03943 37977 ft 488 kts 21°
2026-05-04 19:00 42.64235 -5.00287 37979 ft 487 kts 21°
2026-05-04 19:00 42.70471 -4.96643 37976 ft 488 kts 21°
2026-05-04 19:01 42.76695 -4.92998 37975 ft 488 kts 21°
2026-05-04 19:01 42.82918 -4.89345 37980 ft 487 kts 21°
2026-05-04 19:02 42.89131 -4.85689 37974 ft 487 kts 21°
2026-05-04 19:02 42.95358 -4.82018 37966 ft 487 kts 21°
2026-05-04 19:03 43.01565 -4.78349 37955 ft 489 kts 21°
2026-05-04 19:03 43.07842 -4.74631 37946 ft 488 kts 21°
2026-05-04 19:04 43.14068 -4.70935 37949 ft 488 kts 21°
2026-05-04 19:04 43.20291 -4.67230 37956 ft 487 kts 21°
2026-05-04 19:05 43.26510 -4.63520 37965 ft 487 kts 21°
2026-05-04 19:05 43.32682 -4.59830 37975 ft 487 kts 21°
2026-05-04 19:06 43.38927 -4.56089 37977 ft 487 kts 21°
2026-05-04 19:06 43.45087 -4.52389 37976 ft 487 kts 21°
2026-05-04 19:07 43.51307 -4.48646 37979 ft 487 kts 21°
2026-05-04 19:07 43.57527 -4.44898 37982 ft 487 kts 21°
2026-05-04 19:08 43.63721 -4.41154 37984 ft 488 kts 21°
2026-05-04 19:08 43.69929 -4.37395 37985 ft 487 kts 21°
2026-05-04 19:09 43.76118 -4.33637 37985 ft 486 kts 22°
2026-05-04 19:09 43.82295 -4.29877 37986 ft 486 kts 22°
2026-05-04 19:10 43.88497 -4.26093 37991 ft 485 kts 22°
2026-05-04 19:10 43.94678 -4.22316 37988 ft 485 kts 22°
2026-05-04 19:11 44.00824 -4.18549 37990 ft 485 kts 22°
2026-05-04 19:11 44.06988 -4.14763 37988 ft 486 kts 22°
2026-05-04 19:12 44.16305 -4.09023 37998 ft 487 kts 22°
2026-05-04 19:13 44.22458 -4.05222 37995 ft 487 kts 23°
2026-05-04 19:13 44.28624 -4.01403 38002 ft 486 kts 23°
2026-05-04 19:14 44.34730 -3.97308 38002 ft 485 kts 27°
2026-05-04 19:14 44.40597 -3.92717 38000 ft 485 kts 29°
2026-05-04 19:15 44.46440 -3.88064 38000 ft 485 kts 29°
2026-05-04 19:15 44.52301 -3.83396 37993 ft 485 kts 29°
2026-05-04 19:16 44.58156 -3.78732 37993 ft 485 kts 29°
2026-05-04 19:16 44.64018 -3.74055 37994 ft 486 kts 29°
2026-05-04 19:17 44.69907 -3.69346 37995 ft 487 kts 29°
2026-05-04 19:17 44.75757 -3.64657 37986 ft 486 kts 29°
2026-05-04 19:18 44.81614 -3.59950 37993 ft 484 kts 29°
2026-05-04 19:18 44.87470 -3.55233 37987 ft 484 kts 29°
2026-05-04 19:19 44.93292 -3.50534 37989 ft 484 kts 29°
2026-05-04 19:19 44.99115 -3.45823 37989 ft 484 kts 29°
2026-05-04 19:20 45.04946 -3.41094 37986 ft 484 kts 29°
2026-05-04 19:20 45.10769 -3.36361 37985 ft 484 kts 29°
2026-05-04 19:21 45.16650 -3.31568 37986 ft 485 kts 30°
2026-05-04 19:21 45.22450 -3.26829 37989 ft 485 kts 30°
2026-05-04 19:22 45.28304 -3.22035 37981 ft 484 kts 30°
2026-05-04 19:22 45.34112 -3.17266 37986 ft 483 kts 30°
2026-05-04 19:23 45.39909 -3.12498 37979 ft 483 kts 30°
2026-05-04 19:23 45.45713 -3.07712 37978 ft 482 kts 30°
2026-05-04 19:24 45.51521 -3.02912 37980 ft 482 kts 30°
2026-05-04 19:24 45.57291 -2.98127 37979 ft 482 kts 30°
2026-05-04 19:25 45.63080 -2.93318 37980 ft 482 kts 30°
2026-05-04 19:25 45.68880 -2.88488 37980 ft 482 kts 30°
2026-05-04 19:26 45.74628 -2.83689 37976 ft 482 kts 30°
2026-05-04 19:26 45.80442 -2.78823 37976 ft 481 kts 30°
2026-05-04 19:27 45.86226 -2.73971 37974 ft 481 kts 30°
2026-05-04 19:27 45.92011 -2.69107 37974 ft 481 kts 30°
2026-05-04 19:28 45.97757 -2.64264 37971 ft 481 kts 31°
2026-05-04 19:28 46.03551 -2.59368 37972 ft 481 kts 31°
2026-05-04 19:29 46.09311 -2.54487 37967 ft 481 kts 31°
2026-05-04 19:29 46.15054 -2.49609 37965 ft 481 kts 31°
2026-05-04 19:30 46.20834 -2.44678 37968 ft 482 kts 31°
2026-05-04 19:30 46.26561 -2.39764 37965 ft 482 kts 31°
2026-05-04 19:31 46.32305 -2.34819 37959 ft 481 kts 32°
2026-05-04 19:31 46.38078 -2.29839 37964 ft 481 kts 32°
2026-05-04 19:32 46.43789 -2.24901 37961 ft 481 kts 32°
2026-05-04 19:32 46.49533 -2.19919 37959 ft 480 kts 32°
2026-05-04 19:33 46.55295 -2.14912 37960 ft 481 kts 32°
2026-05-04 19:33 46.61012 -2.09932 37958 ft 481 kts 32°
2026-05-04 19:34 46.66747 -2.04923 37956 ft 481 kts 32°
2026-05-04 19:34 46.72473 -1.99909 37959 ft 481 kts 32°
2026-05-04 19:35 46.78226 -1.94860 37951 ft 480 kts 32°
2026-05-04 19:35 46.83894 -1.89871 37944 ft 480 kts 32°
2026-05-04 19:36 46.89634 -1.84805 37946 ft 481 kts 32°
2026-05-04 19:36 46.95342 -1.79756 37945 ft 481 kts 32°
2026-05-04 19:37 47.01073 -1.74674 37947 ft 481 kts 32°
2026-05-04 19:37 47.06781 -1.69600 37942 ft 482 kts 32°
2026-05-04 19:38 47.12265 -1.64079 37941 ft 480 kts 39°
2026-05-04 19:38 47.17268 -1.57549 37945 ft 479 kts 46°
2026-05-04 19:39 47.21624 -1.50224 37950 ft 477 kts 54°
2026-05-04 19:39 47.25529 -1.42436 37782 ft 472 kts 55°
2026-05-04 19:39 47.27436 -1.38572 37452 ft 469 kts 55°
2026-05-04 19:40 47.29344 -1.34709 37092 ft 467 kts 56°
2026-05-04 19:40 47.31249 -1.30856 36748 ft 464 kts 56°
2026-05-04 19:40 47.33137 -1.27042 36432 ft 461 kts 57°
2026-05-04 19:40 47.35013 -1.23245 36093 ft 457 kts 57°
2026-05-04 19:41 47.36883 -1.19459 35786 ft 454 kts 57°
2026-05-04 19:41 47.38721 -1.15731 35489 ft 451 kts 57°
2026-05-04 19:41 47.40543 -1.12035 35160 ft 449 kts 57°
2026-05-04 19:41 47.42368 -1.08321 34819 ft 446 kts 58°
2026-05-04 19:42 47.44185 -1.04597 34501 ft 443 kts 59°
2026-05-04 19:42 47.45936 -1.00905 34170 ft 441 kts 59°
2026-05-04 19:42 47.47671 -0.97210 33848 ft 438 kts 60°
2026-05-04 19:42 47.49389 -0.93542 33526 ft 436 kts 60°
2026-05-04 19:43 47.51114 -0.89856 33180 ft 434 kts 60°
2026-05-04 19:43 47.52806 -0.86239 32775 ft 432 kts 60°
2026-05-04 19:43 47.54521 -0.82568 32363 ft 430 kts 61°
2026-05-04 19:43 47.56207 -0.78955 31944 ft 428 kts 61°
2026-05-04 19:44 47.57880 -0.75364 31552 ft 426 kts 61°
2026-05-04 19:44 47.59564 -0.71751 31149 ft 424 kts 62°
2026-05-04 19:44 47.61219 -0.68192 30722 ft 422 kts 62°
2026-05-04 19:44 47.62870 -0.64631 30283 ft 420 kts 62°
2026-05-04 19:45 47.64529 -0.61053 29941 ft 415 kts 61°
2026-05-04 19:45 47.67789 -0.54009 29916 ft 417 kts 61°
2026-05-04 19:46 47.71054 -0.46945 29918 ft 417 kts 61°
2026-05-04 19:46 47.74334 -0.39830 29441 ft 417 kts 61°
2026-05-04 19:46 47.75962 -0.36280 28322 ft 426 kts 60°
2026-05-04 19:47 47.77631 -0.32630 27599 ft 429 kts 60°
2026-05-04 19:47 47.79312 -0.28969 27328 ft 422 kts 60°
2026-05-04 19:47 47.80944 -0.25418 27090 ft 414 kts 60°
2026-05-04 19:47 47.82552 -0.21912 26871 ft 406 kts 60°
2026-05-04 19:48 47.84122 -0.18484 26669 ft 399 kts 60°
2026-05-04 19:48 47.85674 -0.15090 26417 ft 393 kts 60°
2026-05-04 19:48 47.87179 -0.11786 26141 ft 388 kts 60°
2026-05-04 19:48 47.88676 -0.08496 25844 ft 384 kts 59°
2026-05-04 19:49 47.90173 -0.05202 25544 ft 380 kts 59°
2026-05-04 19:49 47.91647 -0.01958 25247 ft 376 kts 59°
2026-05-04 19:49 47.93098 0.01238 24959 ft 372 kts 59°
2026-05-04 19:49 47.94543 0.04423 24651 ft 369 kts 59°
2026-05-04 19:50 47.95971 0.07577 24352 ft 366 kts 59°
2026-05-04 19:50 47.97390 0.10719 24062 ft 363 kts 59°
2026-05-04 19:50 47.98777 0.13793 23785 ft 359 kts 59°
2026-05-04 19:50 48.00168 0.16877 23520 ft 355 kts 59°
2026-05-04 19:51 48.01528 0.19894 23232 ft 352 kts 58°
2026-05-04 19:51 48.02905 0.22952 22936 ft 350 kts 58°
2026-05-04 19:51 48.04237 0.25920 22644 ft 348 kts 58°
2026-05-04 19:51 48.05586 0.28924 22349 ft 346 kts 58°
2026-05-04 19:52 48.06911 0.31875 22051 ft 344 kts 58°
2026-05-04 19:52 48.08249 0.34859 21774 ft 341 kts 58°
2026-05-04 19:52 48.09549 0.37764 21493 ft 339 kts 58°
2026-05-04 19:52 48.10858 0.40692 21201 ft 337 kts 58°
2026-05-04 19:53 48.12158 0.43600 20919 ft 335 kts 58°
2026-05-04 19:53 48.13443 0.46478 20636 ft 333 kts 58°
2026-05-04 19:53 48.14735 0.49376 20357 ft 331 kts 58°
2026-05-04 19:53 48.15989 0.52190 20089 ft 328 kts 58°
2026-05-04 19:54 48.17245 0.55014 19810 ft 326 kts 58°
2026-05-04 19:54 48.18509 0.57860 19528 ft 324 kts 58°
2026-05-04 19:54 48.19738 0.60629 19252 ft 323 kts 57°
2026-05-04 19:54 48.20988 0.63449 18968 ft 321 kts 57°
2026-05-04 19:55 48.22206 0.66197 18690 ft 319 kts 58°
2026-05-04 19:55 48.23436 0.68977 18413 ft 317 kts 58°
2026-05-04 19:55 48.24643 0.71706 18144 ft 316 kts 58°
2026-05-04 19:55 48.25847 0.74433 17872 ft 314 kts 58°
2026-05-04 19:56 48.27050 0.77157 17596 ft 313 kts 58°
2026-05-04 19:56 48.28241 0.79861 17314 ft 311 kts 58°
2026-05-04 19:56 48.29437 0.82580 17030 ft 310 kts 58°
2026-05-04 19:56 48.30621 0.85273 16751 ft 309 kts 57°
2026-05-04 19:57 48.31810 0.87979 16470 ft 308 kts 58°
2026-05-04 19:57 48.32984 0.90648 16195 ft 307 kts 58°
2026-05-04 19:57 48.34152 0.93310 15919 ft 306 kts 58°
2026-05-04 19:57 48.35324 0.95981 15649 ft 304 kts 58°
2026-05-04 19:58 48.36482 0.98625 15378 ft 303 kts 58°
2026-05-04 19:58 48.37631 1.01256 15096 ft 302 kts 58°
2026-05-04 19:58 48.38783 1.03895 14814 ft 301 kts 57°
2026-05-04 19:58 48.39918 1.06493 14531 ft 300 kts 57°
2026-05-04 19:59 48.41059 1.09107 14263 ft 299 kts 58°
2026-05-04 19:59 48.42210 1.11739 13988 ft 298 kts 58°
2026-05-04 19:59 48.43346 1.14349 13711 ft 297 kts 57°
2026-05-04 19:59 48.44461 1.16921 13454 ft 296 kts 58°
2026-05-04 20:00 48.45584 1.19502 13189 ft 295 kts 58°
2026-05-04 20:00 48.46696 1.22068 12919 ft 294 kts 58°
2026-05-04 20:00 48.47805 1.24628 12653 ft 292 kts 58°
2026-05-04 20:00 48.48918 1.27196 12381 ft 291 kts 58°
2026-05-04 20:01 48.50024 1.29748 12116 ft 290 kts 58°
2026-05-04 20:01 48.51100 1.32282 11858 ft 287 kts 60°
2026-05-04 20:01 48.52071 1.34927 11850 ft 290 kts 63°
2026-05-04 20:01 48.53009 1.37651 11868 ft 293 kts 64°
2026-05-04 20:02 48.53937 1.40366 11726 ft 290 kts 64°
2026-05-04 20:02 48.54849 1.43037 11402 ft 291 kts 64°
2026-05-04 20:02 48.55786 1.45778 11097 ft 290 kts 64°
2026-05-04 20:02 48.56705 1.48435 10928 ft 285 kts 60°
2026-05-04 20:03 48.57988 1.50759 10922 ft 292 kts 40°
2026-05-04 20:03 48.59723 1.52361 10929 ft 294 kts 28°
2026-05-04 20:03 48.61545 1.53693 10926 ft 293 kts 27°
2026-05-04 20:03 48.63405 1.55027 10923 ft 293 kts 27°
2026-05-04 20:04 48.65230 1.56346 10920 ft 293 kts 27°
2026-05-04 20:04 48.67076 1.57695 10919 ft 292 kts 27°
2026-05-04 20:04 48.68885 1.59026 10919 ft 292 kts 27°
2026-05-04 20:04 48.70581 1.60664 10906 ft 289 kts 47°
2026-05-04 20:05 48.71839 1.63016 10920 ft 288 kts 56°
2026-05-04 20:05 48.72986 1.65519 10921 ft 287 kts 57°
2026-05-04 20:05 48.74118 1.67977 10920 ft 286 kts 56°
2026-05-04 20:05 48.75277 1.70417 10911 ft 285 kts 56°
2026-05-04 20:06 48.76459 1.72852 10711 ft 283 kts 55°
2026-05-04 20:06 48.77628 1.75222 10393 ft 283 kts 54°
2026-05-04 20:06 48.78811 1.77606 9998 ft 282 kts 54°
2026-05-04 20:06 48.79984 1.79953 9511 ft 280 kts 54°
2026-05-04 20:07 48.81153 1.82290 8964 ft 277 kts 54°
2026-05-04 20:07 48.82301 1.84583 8411 ft 274 kts 54°
2026-05-04 20:07 48.83436 1.86849 7849 ft 271 kts 54°
2026-05-04 20:07 48.84572 1.89121 7278 ft 267 kts 54°
2026-05-04 20:08 48.85694 1.91364 6808 ft 264 kts 54°
2026-05-04 20:08 48.86790 1.93558 6471 ft 262 kts 54°
2026-05-04 20:08 48.87897 1.95774 6054 ft 262 kts 53°
2026-05-04 20:08 48.88986 1.97958 5634 ft 260 kts 53°
2026-05-04 20:09 48.90070 2.00132 5277 ft 259 kts 53°
2026-05-04 20:09 48.91147 2.02294 5141 ft 254 kts 53°
2026-05-04 20:09 48.92189 2.04384 4989 ft 239 kts 53°
2026-05-04 20:09 48.93162 2.06340 5008 ft 226 kts 53°
2026-05-04 20:10 48.94092 2.08210 4986 ft 220 kts 53°
2026-05-04 20:10 48.95018 2.10075 4981 ft 222 kts 53°
2026-05-04 20:10 48.95953 2.11960 4985 ft 222 kts 53°
2026-05-04 20:10 48.96782 2.13922 4977 ft 222 kts 70°
2026-05-04 20:11 48.97123 2.16216 4986 ft 222 kts 81°
2026-05-04 20:11 48.97316 2.18527 4982 ft 223 kts 83°
2026-05-04 20:11 48.97471 2.20882 4844 ft 224 kts 84°
2026-05-04 20:11 48.97602 2.23264 4553 ft 228 kts 84°
2026-05-04 20:12 48.97723 2.25664 4253 ft 230 kts 84°
2026-05-04 20:12 48.97840 2.28091 3907 ft 227 kts 84°
2026-05-04 20:12 48.97954 2.30462 3609 ft 219 kts 84°
2026-05-04 20:12 48.98064 2.32709 3343 ft 211 kts 85°
2026-05-04 20:13 48.98173 2.34905 3083 ft 203 kts 84°
2026-05-04 20:13 48.98276 2.36956 2860 ft 189 kts 84°
2026-05-04 20:13 48.98374 2.38907 2628 ft 180 kts 84°
2026-05-04 20:13 48.98469 2.40765 2375 ft 174 kts 84°
2026-05-04 20:14 48.98562 2.42584 2130 ft 168 kts 83°
2026-05-04 20:14 48.98651 2.44304 1904 ft 163 kts 83°
2026-05-04 20:14 48.98738 2.45998 1693 ft 156 kts 83°
2026-05-04 20:14 48.98822 2.47606 1493 ft 149 kts 83°
2026-05-04 20:15 48.98911 2.49154 1272 ft 144 kts 86°
2026-05-04 20:15 48.98989 2.50668 1106 ft 145 kts 85°
2026-05-04 20:15 48.99070 2.52197 925 ft 146 kts 85°
2026-05-04 20:15 48.99150 2.53753 744 ft 146 kts 84°
2026-05-04 20:16 48.99223 2.55290 556 ft 145 kts 84°
2026-05-04 20:16 48.99304 2.56815 358 ft 144 kts 84°
2026-05-04 20:16 48.99377 2.58189 333 ft 109 kts 84°
2026-05-04 20:16 48.99420 2.59005 326 ft 48 kts 85°
2026-05-04 20:17 48.99443 2.59420 323 ft 37 kts 87°
2026-05-04 20:17 48.99477 2.59793 323 ft 30 kts 73°
2026-05-04 20:17 48.99565 2.59967 323 ft 12 kts 18°
2026-05-04 20:17 48.99629 2.59977 325 ft 7 kts
2026-05-04 20:18 48.99684 2.59975 326 ft 8 kts 357°
2026-05-04 20:18 48.99745 2.59969 326 ft 9 kts 354°
2026-05-04 20:18 48.99815 2.59959 326 ft 10 kts 354°
2026-05-04 20:18 48.99879 2.59983 329 ft 7 kts 38°
2026-05-04 20:19 48.99912 2.60025 332 ft 4 kts 40°
2026-05-04 20:19 48.99941 2.60057 334 ft 5 kts 26°
2026-05-04 20:19 48.99976 2.60065 337 ft 5 kts 346°
2026-05-04 20:19 49.00018 2.60026 339 ft 7 kts 336°
2026-05-04 20:20 49.00073 2.59988 339 ft 9 kts 327°
2026-05-04 20:20 49.00093 2.59918 339 ft 7 kts 271°
2026-05-04 20:20 49.00092 2.59811 337 ft 12 kts 266°
2026-05-04 20:20 49.00085 2.59674 337 ft 13 kts 264°
2026-05-04 20:21 49.00076 2.59522 337 ft 14 kts 264°
2026-05-04 20:21 49.00064 2.59364 337 ft 14 kts 265°
2026-05-04 20:21 49.00050 2.59038 337 ft 16 kts 266°
2026-05-04 20:22 49.00041 2.58866 336 ft 16 kts 264°
2026-05-04 20:22 49.00031 2.58690 338 ft 16 kts 264°
2026-05-04 20:22 49.00021 2.58520 342 ft 15 kts 265°
2026-05-04 20:22 49.00013 2.58363 345 ft 14 kts 265°
2026-05-04 20:23 49.00005 2.58211 348 ft 14 kts 265°
2026-05-04 20:23 48.99997 2.58050 348 ft 16 kts 265°
2026-05-04 20:23 48.99987 2.57868 351 ft 17 kts 265°
2026-05-04 20:23 48.99978 2.57679 352 ft 18 kts 264°
2026-05-04 20:24 48.99967 2.57485 355 ft 18 kts 265°
2026-05-04 20:24 48.99958 2.57297 359 ft 17 kts 265°
2026-05-04 20:24 48.99948 2.57112 362 ft 17 kts 265°
2026-05-04 20:24 48.99937 2.56921 362 ft 18 kts 265°
2026-05-04 20:25 48.99925 2.56706 358 ft 22 kts 265°
2026-05-04 20:25 48.99912 2.56465 355 ft 22 kts 265°
2026-05-04 20:25 48.99898 2.56217 349 ft 23 kts 265°
2026-05-04 20:25 48.99887 2.55977 343 ft 21 kts 270°
2026-05-04 20:26 48.99923 2.55765 339 ft 18 kts 294°
2026-05-04 20:26 49.00019 2.55659 339 ft 17 kts 342°
2026-05-04 20:26 49.00138 2.55605 339 ft 17 kts 345°
2026-05-04 20:26 49.00256 2.55554 339 ft 17 kts 343°
2026-05-04 20:27 49.00377 2.55503 340 ft 17 kts 343°
2026-05-04 20:27 49.00491 2.55453 341 ft 17 kts 343°
2026-05-04 20:27 49.00600 2.55405 344 ft 15 kts 343°
2026-05-04 20:27 49.00696 2.55390 346 ft 12 kts 24°
2026-05-04 20:28 49.00730 2.55502 348 ft 11 kts 82°
2026-05-04 20:28 49.00738 2.55617 350 ft 10 kts 84°
2026-05-04 20:28 49.00746 2.55729 351 ft 10 kts 84°
2026-05-04 20:28 49.00755 2.55823 353 ft 8 kts 80°
2026-05-04 20:29 49.00764 2.55910 355 ft 8 kts 80°
2026-05-04 20:29 49.00775 2.56004 355 ft 9 kts 80°
2026-05-04 20:29 49.00785 2.56102 357 ft 9 kts 82°
2026-05-04 20:29 49.00792 2.56188 359 ft 7 kts 82°
2026-05-04 20:30 49.00798 2.56250 361 ft 4 kts 82°
2026-05-04 20:30 49.00803 2.56306 363 ft 7 kts 82°
2026-05-04 20:30 49.00794 2.56394 366 ft 9 kts 120°
2026-05-04 20:30 49.00731 2.56450 367 ft 11 kts 172°
2026-05-04 20:31 49.00647 2.56428 365 ft 14 kts 217°
2026-05-04 20:31 49.00618 2.56298 361 ft 13 kts 263°
2026-05-04 20:31 49.00610 2.56164 358 ft 12 kts 265°
2026-05-04 20:31 49.00599 2.56070 356 ft 5 kts 254°
2026-05-04 20:32 49.00607 2.56036 356 ft 5 kts 322°
2026-05-04 20:32 49.00640 2.56031 356 ft 4 kts
2026-05-04 20:32 49.00660 2.56035 356 ft 2 kts
2026-05-04 20:32 49.00672 2.56037 356 ft 0 kts